OK1FPA-13 Weather Reports


time (UTC)temp
F
wind
direction
speed
knots
gust
knots
rain 1hr
in
rain 24hr
in
rain mn
in
humidity
%
barometer
mb
20260905182749 66 0.0 0.0 0.00 0.00 0.00 50 1021.6
20260905181748 66 0.0 0.0 0.00 0.00 0.00 49 1021.5
20260905180747 67 0.0 0.0 0.00 0.00 0.00 48 1021.4
20260905175748 67 0.0 0.0 0.00 0.00 0.00 47 1021.1
20260905174748 67 0.0 0.0 0.00 0.00 0.00 47 1021.0
20260905173748 67 0.0 0.0 0.00 0.00 0.00 46 1020.9
20260905172748 68 0.0 0.0 0.00 0.00 0.00 46 1020.8
20260905171748 68 0.0 0.0 0.00 0.00 0.00 46 1020.8
20260905170747 68 0.0 0.0 0.00 0.00 0.00 46 1020.6
20260905165747 69 0.0 0.0 0.00 0.00 0.00 44 1020.5
20260905164747 69 0.0 0.0 0.00 0.00 0.00 43 1020.3
20260905163747 69 0.0 0.0 0.00 0.00 0.00 44 1020.3
20260905162748 70 0.0 0.0 0.00 0.00 0.00 43 1020.3
20260905161748 70 0.0 0.0 0.00 0.00 0.00 42 1020.2
20260905160748 70 0.0 0.0 0.00 0.00 0.00 41 1020.0
20260905155748 71 0.0 0.0 0.00 0.00 0.00 43 1020.0
20260905154748 71 0.0 0.0 0.00 0.00 0.00 42 1019.9
20260905153748 71 0.0 0.0 0.00 0.00 0.00 41 1019.9
20260905152748 71 0.0 0.0 0.00 0.00 0.00 42 1019.8
20260905151750 71 0.0 0.0 0.00 0.00 0.00 43 1019.7
20260905150748 71 0.0 0.0 0.00 0.00 0.00 43 1019.7
20260905145748 71 0.0 0.0 0.00 0.00 0.00 41 1019.7
20260905144748 73 0.0 0.0 0.00 0.00 0.00 41 1019.6
20260905143749 74 0.0 0.0 0.00 0.00 0.00 41 1019.5
20260905142748 73 0.0 0.0 0.00 0.00 0.00 39 1019.5
20260905141748 75 0.0 0.0 0.00 0.00 0.00 39 1019.5
20260905140748 74 0.0 0.0 0.00 0.00 0.00 41 1019.5
20260905135748 74 0.0 0.0 0.00 0.00 0.00 41 1019.5
20260905134747 75 0.0 0.0 0.00 0.00 0.00 39 1019.6
20260905133748 75 0.0 0.0 0.00 0.00 0.00 41 1019.6
20260905132748 76 0.0 0.0 0.00 0.00 0.00 40 1019.6
20260905131748 74 0.0 0.0 0.00 0.00 0.00 42 1019.6
20260905130748 72 0.0 0.0 0.00 0.00 0.00 45 1019.8
20260905125747 73 0.0 0.0 0.00 0.00 0.00 44 1020.0
20260905124748 76 0.0 0.0 0.00 0.00 0.00 42 1019.8
20260905123748 76 0.0 0.0 0.00 0.00 0.00 41 1019.8
20260905122747 77 0.0 0.0 0.00 0.00 0.00 43 1020.0
20260905121748 76 0.0 0.0 0.00 0.00 0.00 42 1020.1
20260905120748 76 0.0 0.0 0.00 0.00 0.00 42 1020.1
20260905115748 76 0.0 0.0 0.00 0.00 0.00 43 1020.3
20260905113748 73 0.0 0.0 0.00 0.00 0.00 43 1020.4
20260905112747 76 0.0 0.0 0.00 0.00 0.00 42 1020.4
20260905111747 76 0.0 0.0 0.00 0.00 0.00 43 1020.4
20260905110748 76 0.0 0.0 0.00 0.00 0.00 42 1020.3
20260905105748 75 0.0 0.0 0.00 0.00 0.00 43 1020.3
20260905104748 75 0.0 0.0 0.00 0.00 0.00 44 1020.2
20260905103747 75 0.0 0.0 0.00 0.00 0.00 46 1020.2
20260905102747 75 0.0 0.0 0.00 0.00 0.00 49 1020.2
20260905101748 74 0.0 0.0 0.00 0.00 0.00 50 1020.2
20260905100747 74 0.0 0.0 0.00 0.00 0.00 56 1020.2
20260905095748 73 0.0 0.0 0.00 0.00 0.00 57 1020.1
20260905094747 72 0.0 0.0 0.00 0.00 0.00 57 1020.2
20260905093748 73 0.0 0.0 0.00 0.00 0.00 61 1020.3
20260905092750 72 0.0 0.0 0.00 0.00 0.00 64 1020.3
20260905091746 71 0.0 0.0 0.00 0.00 0.00 68 1020.4
20260905090746 70 0.0 0.0 0.00 0.00 0.00 71 1020.4
20260905085746 70 0.0 0.0 0.00 0.00 0.00 68 1020.4
20260905084746 71 0.0 0.0 0.00 0.00 0.00 72 1020.3
20260905083746 70 0.0 0.0 0.00 0.00 0.00 71 1020.3
20260905082746 70 0.0 0.0 0.00 0.00 0.00 77 1020.1
20260905081746 69 0.0 0.0 0.00 0.00 0.00 83 1019.9
20260905080746 68 0.0 0.0 0.00 0.00 0.00 86 1019.8
20260905075746 67 0.0 0.0 0.00 0.00 0.00 86 1019.7
20260905074746 66 0.0 0.0 0.00 0.00 0.00 90 1019.8
20260905073746 66 0.0 0.0 0.00 0.00 0.00 95 1019.8
20260905072746 65 0.0 0.0 0.00 0.00 0.00 99 1019.7
20260905071746 64 0.0 0.0 0.00 0.00 0.00 10 1019.6
20260905070746 63 0.0 0.0 0.00 0.00 0.00 10 1019.7
20260905065746 63 0.0 0.0 0.00 0.00 0.00 10 1019.7
20260905064746 62 0.0 0.0 0.00 0.00 0.00 10 1019.7
20260905063746 61 0.0 0.0 0.00 0.00 0.00 10 1019.7
20260905062746 60 0.0 0.0 0.00 0.00 0.00 10 1019.6
20260905061746 59 0.0 0.0 0.00 0.00 0.00 10 1019.6
20260905060746 58 0.0 0.0 0.00 0.00 0.00 10 1019.6
20260905055746 58 0.0 0.0 0.00 0.00 0.00 10 1019.5
20260905054746 58 0.0 0.0 0.00 0.00 0.00 10 1019.2
20260905053746 58 0.0 0.0 0.00 0.00 0.00 10 1019.1
20260905052746 58 0.0 0.0 0.00 0.00 0.00 10 1018.9
20260905051746 58 0.0 0.0 0.00 0.00 0.00 10 1018.7
20260905050746 58 0.0 0.0 0.00 0.00 0.00 10 1018.4
20260905045746 58 0.0 0.0 0.00 0.00 0.00 10 1018.4
20260905044746 58 0.0 0.0 0.00 0.00 0.00 10 1018.1
20260905043746 59 0.0 0.0 0.00 0.00 0.00 10 1018.4
20260905042746 59 0.0 0.0 0.00 0.00 0.00 10 1018.5
20260905041746 60 0.0 0.0 0.00 0.00 0.00 10 1018.2
20260905040746 60 0.0 0.0 0.00 0.00 0.00 10 1018.4
20260905035746 61 0.0 0.0 0.00 0.00 0.00 10 1018.1
20260905034746 61 0.0 0.0 0.00 0.00 0.00 10 1018.1
20260905033746 61 0.0 0.0 0.00 0.00 0.00 10 1018.4
20260905032746 62 0.0 0.0 0.00 0.00 0.00 10 1018.2
20260905031746 62 0.0 0.0 0.00 0.00 0.00 10 1017.4
20260905030746 62 0.0 0.0 0.00 0.00 0.00 10 1017.0
20260905025746 62 0.0 0.0 0.00 0.00 0.00 10 1017.2
20260905024746 63 0.0 0.0 0.00 0.00 0.00 10 1017.0
20260905023746 63 0.0 0.0 0.00 0.00 0.00 10 1017.2
20260905022746 64 0.0 0.0 0.00 0.00 0.00 10 1017.3
20260905021746 64 0.0 0.0 0.00 0.00 0.00 10 1016.7
20260905020746 65 0.0 0.0 0.00 0.00 0.00 10 1016.8
20260905015746 65 0.0 0.0 0.00 0.00 0.00 97 1017.0
20260905014746 64 0.0 0.0 0.00 0.00 0.00 98 1016.6
20260905013746 64 0.0 0.0 0.00 0.00 0.00 98 1016.5
20260905012746 64 0.0 0.0 0.00 0.00 0.00 98 1016.8
20260905011746 64 0.0 0.0 0.00 0.00 0.00 98 1016.7
20260905010746 65 0.0 0.0 0.00 0.00 0.00 91 1016.4
20260905005746 66 0.0 0.0 0.00 0.00 0.00 89 1016.4
20260905004746 66 0.0 0.0 0.00 0.00 0.00 89 1015.9
20260905003746 66 0.0 0.0 0.00 0.00 0.00 87 1015.8
20260905002746 66 0.0 0.0 0.00 0.00 0.00 84 1016.2
20260905001746 66 0.0 0.0 0.00 0.00 0.00 82 1015.8
20260905000746 66 0.0 0.0 0.00 0.00 0.00 81 1015.5
20260904235746 66 0.0 0.0 0.00 0.00 0.00 78 1015.5
20260904234746 67 0.0 0.0 0.00 0.00 0.00 76 1015.8
20260904233746 67 0.0 0.0 0.00 0.00 0.00 74 1015.0
20260904232746 67 0.0 0.0 0.00 0.00 0.00 74 1014.7
20260904231746 67 0.0 0.0 0.00 0.00 0.00 74 1014.5
20260904230746 67 0.0 0.0 0.00 0.00 0.00 72 1014.4
20260904225746 67 0.0 0.0 0.00 0.00 0.00 74 1013.9
20260904224746 67 0.0 0.0 0.00 0.00 0.00 74 1013.7
20260904223746 68 0.0 0.0 0.00 0.00 0.00 79 1013.4
20260904222746 68 0.0 0.0 0.00 0.00 0.00 80 1013.1
20260904221746 69 0.0 0.0 0.00 0.00 0.00 83 1012.6
20260904220746 69 0.0 0.0 0.00 0.00 0.00 85 1012.4
20260904215746 69 0.0 0.0 0.00 0.00 0.00 87 1012.3
20260904214746 69 0.0 0.0 0.00 0.00 0.00 84 1012.0
20260904213746 69 0.0 0.0 0.00 0.00 0.00 82 1012.0
20260904212749 70 0.0 0.0 0.00 0.00 0.00 76 1011.8
20260904211744 71 0.0 0.0 0.00 0.00 0.00 72 1011.7
20260904210745 72 0.0 0.0 0.00 0.00 0.00 68 1011.6
20260904205744 73 0.0 0.0 0.00 0.00 0.00 64 1011.6
20260904204744 73 0.0 0.0 0.00 0.00 0.00 60 1011.2
20260904203745 73 0.0 0.0 0.00 0.00 0.00 59 1011.0
20260904202744 74 0.0 0.0 0.00 0.00 0.00 59 1011.1
20260904201745 73 0.0 0.0 0.00 0.00 0.00 59 1011.2
20260904200744 74 0.0 0.0 0.00 0.00 0.00 60 1011.3
20260904195744 74 0.0 0.0 0.00 0.00 0.00 60 1011.4
20260904194744 74 0.0 0.0 0.00 0.00 0.00 59 1011.5
20260904193744 74 0.0 0.0 0.00 0.00 0.00 60 1011.5
20260904192744 75 0.0 0.0 0.00 0.00 0.00 59 1011.6
20260904191744 75 0.0 0.0 0.00 0.00 0.00 59 1011.5
20260904190744 75 0.0 0.0 0.00 0.00 0.00 58 1011.5
20260904185744 76 0.0 0.0 0.00 0.00 0.00 57 1011.5
20260904184744 76 0.0 0.0 0.00 0.00 0.00 56 1011.5
20260904183744 76 0.0 0.0 0.00 0.00 0.00 55 1011.5